When you browse on this site, cookies collect data to enhance your experience and personalize the content and advertising you see.
Visit our Privacy Policy to learn more. By continuing to use the site, you agree to this use of cookies and data.
  • In Latvia
  • List of Countries
  • For 7 days
  • Water Temperature
  • Satellite Maps
  • Weather Map
  • Weather Widgets
  • user-avatar
    Login

    Hourly Weather Salzburg

    Today, 24 May, Friday

    Time Temperature Precipitation Wind Pressure Humidity
    00:00 +2°C° 0 mm 1 mps 625 mmHg 93%
    01:00 +1°C° 0 mm 1 mps 625 mmHg 92%
    02:00 +1°C° 0 mm 1 mps 624 mmHg 89%
    03:00 +1°C° 0 mm 1 mps 624 mmHg 86%
    04:00 +1°C° 0 mm 1 mps 624 mmHg 83%
    05:00 +3°C° 0 mm 1 mps 625 mmHg 73%
    06:00 +6°C° 0 mm 1 mps 625 mmHg 64%
    07:00 +7°C° 0 mm 0 mps 626 mmHg 55%
    08:00 +10°C° 0 mm 1 mps 627 mmHg 49%
    09:00 +12°C° 0 mm 1 mps 627 mmHg 43%
    10:00 +14°C° 0 mm 1 mps 628 mmHg 38%
    11:00 +14°C° 0 mm 1 mps 628 mmHg 37%
    12:00 +15°C° 0 mm 2 mps 628 mmHg 36%
    13:00 +16°C° 0 mm 2 mps 628 mmHg 36%
    14:00 +15°C° 0 mm 2 mps 627 mmHg 39%
    15:00 +15°C° 0 mm 2 mps 627 mmHg 42%
    16:00 +15°C° 0 mm 2 mps 626 mmHg 45%
    17:00 +13°C° 0 mm 2 mps 626 mmHg 56%
    18:00 +11°C° 0 mm 1 mps 625 mmHg 68%
    19:00 +9°C° 0 mm 1 mps 625 mmHg 79%
    20:00 +8°C° 0 mm 1 mps 624 mmHg 84%
    21:00 +7°C° 0 mm 1 mps 624 mmHg 88%
    22:00 +5°C° 0 mm 1 mps 624 mmHg 93%
    23:00 +5°C° 0 mm 1 mps 624 mmHg 92%

    Tomorrow, 25 May, Saturday

    Time Temperature Precipitation Wind Pressure Humidity
    00:00 +5°C° 0 mm 1 mps 624 mmHg 91%
    01:00 +4°C° 0 mm 1 mps 624 mmHg 91%
    02:00 +4°C° 0 mm 1 mps 624 mmHg 90%
    03:00 +4°C° 0 mm 1 mps 623 mmHg 90%
    04:00 +4°C° 0 mm 1 mps 623 mmHg 90%
    05:00 +6°C° 0 mm 1 mps 624 mmHg 82%
    06:00 +7°C° 0 mm 0 mps 625 mmHg 75%
    07:00 +10°C° 0 mm 0 mps 626 mmHg 67%
    08:00 +11°C° 0 mm 0 mps 626 mmHg 62%
    09:00 +14°C° 0 mm 1 mps 627 mmHg 56%
    10:00 +15°C° 0 mm 1 mps 627 mmHg 51%
    11:00 +15°C° 0.6 mm 1 mps 627 mmHg 58%
    12:00 +14°C° 0.6 mm 1 mps 627 mmHg 65%
    13:00 +14°C° 0.6 mm 1 mps 626 mmHg 71%
    14:00 +12°C° 1.8 mm 1 mps 626 mmHg 79%
    15:00 +11°C° 1.8 mm 1 mps 625 mmHg 86%
    16:00 +9°C° 1.8 mm 0 mps 624 mmHg 94%
    17:00 +9°C° 1.9 mm 1 mps 624 mmHg 95%
    18:00 +9°C° 1.9 mm 1 mps 624 mmHg 96%
    19:00 +8°C° 1.9 mm 1 mps 624 mmHg 98%
    20:00 +7°C° 2.1 mm 1 mps 624 mmHg 98%
    21:00 +7°C° 2.1 mm 1 mps 624 mmHg 98%
    22:00 +7°C° 2.1 mm 1 mps 625 mmHg 98%
    23:00 +6°C° 1.1 mm 1 mps 624 mmHg 98%

    Day after tomorrow, 26 May, Sunday

    Time Temperature Precipitation Wind Pressure Humidity
    00:00 +6°C° 1.1 mm 1 mps 624 mmHg 97%
    01:00 +5°C° 1.1 mm 1 mps 624 mmHg 97%
    02:00 +5°C° 0.8 mm 1 mps 624 mmHg 97%
    03:00 +5°C° 0.8 mm 1 mps 624 mmHg 96%
    04:00 +5°C° 0.8 mm 1 mps 624 mmHg 96%
    05:00 +6°C° 0.3 mm 1 mps 624 mmHg 94%
    06:00 +7°C° 0.3 mm 1 mps 625 mmHg 93%
    07:00 +8°C° 0.3 mm 1 mps 625 mmHg 91%
    08:00 +9°C° 0.5 mm 1 mps 626 mmHg 85%
    09:00 +10°C° 0.5 mm 1 mps 626 mmHg 78%
    10:00 +11°C° 0.5 mm 1 mps 627 mmHg 72%
    11:00 +12°C° 0.4 mm 1 mps 627 mmHg 69%
    12:00 +12°C° 0.4 mm 2 mps 627 mmHg 66%
    13:00 +13°C° 0.4 mm 2 mps 627 mmHg 64%
    14:00 +13°C° 0.2 mm 2 mps 626 mmHg 64%
    15:00 +13°C° 0.2 mm 2 mps 626 mmHg 64%
    16:00 +12°C° 0.2 mm 2 mps 626 mmHg 64%
    17:00 +10°C° 0 mm 2 mps 626 mmHg 71%
    18:00 +10°C° 0 mm 1 mps 625 mmHg 77%
    19:00 +9°C° 0 mm 1 mps 625 mmHg 84%
    20:00 +7°C° 0 mm 1 mps 625 mmHg 87%
    21:00 +6°C° 0 mm 1 mps 625 mmHg 91%
    22:00 +5°C° 0 mm 1 mps 624 mmHg 94%
    23:00 +5°C° 0 mm 1 mps 624 mmHg 94%

    27 May, Monday

    Time Temperature Precipitation Wind Pressure Humidity
    00:00 +4°C° 0 mm 1 mps 624 mmHg 93%
    01:00 +4°C° 0 mm 1 mps 624 mmHg 93%
    02:00 +4°C° 0 mm 1 mps 623 mmHg 92%
    03:00 +4°C° 0 mm 1 mps 623 mmHg 92%
    04:00 +4°C° 0 mm 1 mps 623 mmHg 91%
    05:00 +6°C° 0 mm 1 mps 624 mmHg 84%
    06:00 +9°C° 0 mm 1 mps 624 mmHg 77%
    07:00 +10°C° 0 mm 0 mps 625 mmHg 69%
    08:00 +13°C° 0 mm 1 mps 626 mmHg 63%
    09:00 +14°C° 0 mm 1 mps 626 mmHg 56%
    10:00 +16°C° 0 mm 1 mps 626 mmHg 50%
    11:00 +15°C° 0.1 mm 1 mps 626 mmHg 53%
    12:00 +15°C° 0.1 mm 1 mps 625 mmHg 57%
    13:00 +14°C° 0.1 mm 1 mps 625 mmHg 61%
    14:00 +14°C° 0.3 mm 1 mps 625 mmHg 64%
    15:00 +14°C° 0.3 mm 1 mps 624 mmHg 66%
    16:00 +14°C° 0.3 mm 1 mps 624 mmHg 69%
    17:00 +13°C° 0.6 mm 1 mps 624 mmHg 77%
    18:00 +12°C° 0.6 mm 1 mps 623 mmHg 85%
    19:00 +10°C° 0.6 mm 1 mps 623 mmHg 93%
    20:00 +10°C° 0.7 mm 1 mps 622 mmHg 95%
    21:00 +9°C° 0.7 mm 1 mps 622 mmHg 96%
    22:00 +7°C° 0.7 mm 0 mps 622 mmHg 97%
    23:00 +7°C° 1.8 mm 0 mps 622 mmHg 98%

    28 May, Tuesday

    Time Temperature Precipitation Wind Pressure Humidity
    00:00 +8°C° 1.8 mm 1 mps 621 mmHg 98%
    01:00 +8°C° 1.8 mm 1 mps 621 mmHg 98%
    02:00 +8°C° 2.6 mm 1 mps 621 mmHg 98%
    03:00 +8°C° 2.6 mm 1 mps 620 mmHg 98%
    04:00 +7°C° 2.6 mm 1 mps 620 mmHg 98%
    05:00 +7°C° 1.8 mm 1 mps 619 mmHg 98%
    06:00 +7°C° 1.8 mm 1 mps 619 mmHg 98%
    07:00 +6°C° 1.8 mm 0 mps 619 mmHg 98%
    08:00 +7°C° 1.2 mm 1 mps 619 mmHg 97%
    09:00 +7°C° 1.2 mm 1 mps 619 mmHg 97%
    10:00 +7°C° 1.2 mm 1 mps 619 mmHg 97%
    11:00 +7°C° 0.5 mm 1 mps 619 mmHg 96%
    12:00 +7°C° 0.5 mm 1 mps 619 mmHg 96%
    13:00 +6°C° 0.5 mm 2 mps 619 mmHg 95%
    14:00 +6°C° 0.4 mm 1 mps 619 mmHg 96%
    15:00 +6°C° 0.4 mm 1 mps 619 mmHg 97%
    16:00 +6°C° 0.4 mm 1 mps 618 mmHg 98%
    17:00 +5°C° 0.4 mm 1 mps 619 mmHg 98%
    18:00 +5°C° 0.4 mm 1 mps 619 mmHg 98%
    19:00 +5°C° 0.4 mm 1 mps 619 mmHg 98%
    20:00 +5°C° 0.4 mm 1 mps 619 mmHg 98%
    21:00 +5°C° 0.4 mm 1 mps 620 mmHg 98%
    22:00 +5°C° 0.4 mm 1 mps 620 mmHg 98%
    23:00 +4°C° 0.3 mm 0 mps 620 mmHg 98%

    29 May, Wednesday

    Time Temperature Precipitation Wind Pressure Humidity
    00:00 +4°C° 0.3 mm 0 mps 620 mmHg 98%
    01:00 +4°C° 0.3 mm 0 mps 620 mmHg 98%
    02:00 +4°C° 0.4 mm 0 mps 620 mmHg 98%
    03:00 +3°C° 0.4 mm 0 mps 620 mmHg 98%
    04:00 +3°C° 0.4 mm 0 mps 620 mmHg 97%
    05:00 +4°C° 0.5 mm 0 mps 620 mmHg 97%
    06:00 +4°C° 0.4 mm 0 mps 621 mmHg 96%
    07:00 +5°C° 0.4 mm 0 mps 621 mmHg 95%
    08:00 +7°C° 0.4 mm 1 mps 621 mmHg 92%
    09:00 +8°C° 0.4 mm 1 mps 622 mmHg 88%
    10:00 +9°C° 0.4 mm 1 mps 623 mmHg 85%
    11:00 +9°C° 0.4 mm 1 mps 623 mmHg 84%
    12:00 +10°C° 0.4 mm 1 mps 623 mmHg 83%
    13:00 +10°C° 0.4 mm 1 mps 623 mmHg 82%
    14:00 +10°C° 0.8 mm 1 mps 623 mmHg 85%
    15:00 +9°C° 0.8 mm 1 mps 623 mmHg 88%
    16:00 +9°C° 0.8 mm 1 mps 623 mmHg 91%
    17:00 +8°C° 2.2 mm 1 mps 623 mmHg 93%
    18:00 +7°C° 2.2 mm 1 mps 623 mmHg 95%
    19:00 +6°C° 2.2 mm 1 mps 624 mmHg 98%
    20:00 +6°C° 2.6 mm 1 mps 624 mmHg 98%
    21:00 +5°C° 2.6 mm 1 mps 624 mmHg 98%
    22:00 +4°C° 2.6 mm 1 mps 624 mmHg 99%
    23:00 +4°C° 1.1 mm 1 mps 624 mmHg 99%
    Show more